Meteo Giornale » Osservazioni meteo Germania » Ingolstadt
ore: 07:20 - Osservazioni Meteo Ingolstadt
Lat. 48° 43' N Lon. 11° 32' E Alt. 367 metri s.l.m.
13 °C
Molto Nuvoloso
Temp. 24 Ore
13 °C
25 °C
Nord
5.5 Km/h
Dew point 11 °C
Umidità 87 %
Visibilità 10 Km
Il sole sorge alle ore 06:30
Il sole tramonta alle ore 19:56
| Data e Ora | Cielo e Fenomeni | T °C | DP °C | Um. % | Pres. hPa | Vis. km | Vento km/h | |
|---|---|---|---|---|---|---|---|---|
| Oggi h: 07:20 | Molto Nuvoloso | 13 | 11 | 87 | 1022 | 10 | N 5.5 | |
| Oggi h: 06:20 | Nuvoloso | 13 | 11 | 87 | 1021 | 10 | N 1.8 | |
| Oggi h: 05:20 | Molto Nuvoloso | 14 | 11 | 82 | 1021 | 10 | N 3.7 | |
| Oggi h: 04:20 | Sereno | 14 | 11 | 82 | 1021 | 10 | N 1.8 | |
| Oggi h: 03:20 | Sereno | 15 | 11 | 76 | 1021 | 10 | N 3.7 | |
| Oggi h: 02:20 | Sereno | 15 | 11 | 76 | 1021 | 10 | S/SO 7.4 | |
| Oggi h: 01:20 | Sereno | 16 | 11 | 72 | 1021 | 0 | N 5.5 | |
| Oggi h: 00:20 | Sereno | 17 | 11 | 67 | 1021 | 0 | O 11.1 | |
| Ieri h: 23:20 | Sereno | 17 | 10 | 63 | 1020 | 0 | O/SO 11.1 | |
| Ieri h: 22:20 | Sereno | 19 | 10 | 55 | 1019 | 0 | O/NO 16.7 | |
| Ieri h: 21:20 | Sereno | 20 | 10 | 52 | 1019 | 0 | O/NO 14.8 | |
| Ieri h: 20:20 | Sereno | 22 | 9 | 43 | 1018 | 0 | NO 13 | |
| Ieri h: 19:20 | Sereno | 23 | 8 | 38 | 1016 | 0 | O 14.8 | |
| Ieri h: 18:20 | Poco Nuvoloso | 24 | 9 | 38 | 1016 | 10 | O 18.5 | |
| Ieri h: 17:20 | Poco Nuvoloso | 24 | 10 | 41 | 1016 | 10 | O/NO 20.3 | |
| Ieri h: 16:20 | Poco Nuvoloso | 25 | 10 | 38 | 1017 | 10 | O 22.2 | |
| Ieri h: 15:20 | Poco Nuvoloso | 24 | 9 | 38 | 1017 | 10 | O/NO 24 | |
| Ieri h: 14:20 | Poco Nuvoloso | 24 | 11 | 43 | 1017 | 10 | O 24 | |
| Ieri h: 13:20 | Poco Nuvoloso | 23 | 13 | 53 | 1017 | 10 | O 20.3 | |
| Ieri h: 12:20 | Nuvoloso | 21 | 13 | 60 | 1017 | 10 | O/NO 18.5 | |
| Ieri h: 11:20 | Nuvoloso | 21 | 13 | 60 | 1017 | 10 | O 24 | |
| Ieri h: 10:20 | Nuvoloso | 20 | 15 | 72 | 1017 | 10 | O/NO 20.3 | |
| Ieri h: 09:20 | Nuvoloso | 19 | 15 | 77 | 1017 | 10 | O 20.3 | |
| Ieri h: 08:20 | Poco Nuvoloso | 18 | 15 | 82 | 1016 | 10 | O 14.8 | |



